[[{"header":{"parameterUnit":"m.s-1","parameterCategory":2,"la1":30.2991,"la2":30.254,"lo1":-89.0895,"lo2":-89.0444,"dy":0.0017,"dx":0.0017,"nx":28,"ny":28,"refTime":"2024-06-08T09:00:00:Z","depth":"0","parameterNumber":2,"parameterNumberName":"U-component_of_CURRENTS"},"data":[0,0,0,0,0,0,0,0,0,0,0,0,0,0,0,0,0,0,0,0,0,0,0,0,0,0,0,0,0,0,0,0,0,0,0,0,0,0,0,0,0,0,0,0,0,0,0,0,0,0,0,0,0,0,0,0,0,0,-0.3274,-0.3275,0,-0.3366,-0.3367,-0.3368,-0.3383,-0.3383,-0.3382,-0.3382,-0.367,-0.3678,-0.3686,0,0,0,0,0,0,0,0,0,0,0,0,0,-0.3134,-0.3136,-0.3274,-0.3275,-0.3277,-0.3366,-0.3367,-0.3368,-0.3383,-0.3383,-0.3382,-0.3382,-0.3667,-0.3677,-0.3687,0,0,0,0,0,0,0,0,0,0,0,0,0,-0.3205,-0.3137,-0.3274,-0.3297,-0.33,-0.3366,-0.3367,-0.3368,-0.3384,-0.3383,-0.3382,-0.3381,-0.3664,-0.3676,-0.3688,-0.3779,0,0,-0.3725,-0.3731,0,0,0,0,0,0,0,0,-0.3201,-0.321,-0.3292,-0.3296,-0.33,-0.3365,-0.3424,-0.3517,-0.3384,-0.3349,-0.3382,-0.3381,-0.3589,-0.3607,-0.3619,-0.3793,-0.3805,-0.3726,-0.3734,-0.3739,-0.3743,0,0,0,0,0,0,0,-0.3196,-0.3206,-0.3308,-0.3294,-0.3298,-0.3312,-0.332,-0.344,-0.3474,-0.3352,-0.3354,-0.3369,-0.3591,-0.3607,-0.3627,-0.3809,-0.3726,-0.3737,-0.3744,-0.3749,-0.4093,-0.4095,0,0,0,0,0,0,-0.319,-0.3201,-0.3305,-0.3311,-0.325,-0.3315,-0.3324,-0.3342,-0.3468,-0.3486,-0.337,-0.337,-0.3586,-0.3612,-0.3637,-0.3771,-0.3739,-0.375,-0.3757,-0.4092,-0.4094,-0.4096,0,0,0,0,0,0,-0.3187,-0.3199,-0.3301,-0.326,-0.3274,-0.3318,-0.3338,-0.3345,-0.3352,-0.348,-0.35,-0.3369,-0.3587,-0.362,-0.376,-0.3782,-0.3756,-0.3767,-0.4089,-0.4092,-0.4095,-0.4028,0,0,0,0,0,0,-0.3183,-0.3197,-0.3202,-0.326,-0.3276,-0.3328,-0.334,-0.3347,-0.3365,-0.3365,-0.3488,-0.3513,-0.3589,-0.3741,-0.3772,-0.3798,-0.3777,-0.4087,-0.4091,-0.4094,-0.4028,-0.4028,-0.4028,0,0,0,0,0,-0.3177,-0.3187,-0.3202,-0.3214,-0.3284,-0.3329,-0.3338,-0.3364,-0.3365,-0.3367,-0.3471,-0.3509,-0.3783,-0.3754,-0.3789,-0.3819,-0.4086,-0.409,-0.4094,-0.4028,-0.4028,-0.4028,0,0,0,0,0,0,-0.3129,-0.3192,-0.3208,-0.3236,-0.3275,-0.3332,-0.3341,-0.3359,-0.3435,-0.3442,-0.3552,-0.3587,-0.3717,-0.3783,-0.3747,-0.3928,-0.3934,-0.3945,-0.3872,-0.3873,-0.3873,-0.3841,-0.3787,0,0,0,0,0,-0.3123,-0.3142,-0.3204,-0.3223,-0.3243,-0.3289,-0.3309,-0.3327,-0.3403,-0.343,-0.3514,-0.3627,-0.3763,-0.3826,-0.3942,-0.4051,-0.4008,-0.4088,-0.4088,-0.4087,-0.4087,-0.4043,-0.4036,-0.4109,-0.4109,-0.4109,0,0,-0.3108,-0.3146,-0.3156,-0.3213,-0.3245,-0.3283,-0.3297,-0.3323,-0.3364,-0.3461,-0.354,-0.364,-0.3797,-0.3916,-0.3977,-0.3972,-0.4033,-0.4093,-0.4091,-0.4091,-0.4046,-0.4038,-0.4031,-0.4112,-0.4111,-0.4111,0,0,-0.3094,-0.3124,-0.3138,-0.3173,-0.3222,-0.3262,-0.3266,-0.3319,-0.335,-0.3444,-0.3538,-0.3637,-0.3814,-0.3918,-0.4005,-0.4078,-0.4042,-0.4118,-0.409,-0.4047,-0.4038,-0.4031,-0.3892,-0.3873,-0.4107,-0.4107,-0.4107,0,-0.3074,-0.3107,-0.3147,-0.3176,-0.3209,-0.3252,-0.3281,-0.3332,-0.3419,-0.3448,-0.3459,-0.3679,-0.3813,-0.3968,-0.4016,-0.4075,-0.4009,-0.4072,-0.4039,-0.4031,-0.4025,-0.3886,-0.3865,-0.4105,-0.4105,-0.4105,-0.4105,0,-0.3079,-0.3106,-0.3117,-0.3176,-0.3215,-0.324,-0.3322,-0.3348,-0.3384,-0.3426,-0.3535,-0.3679,-0.3794,-0.3865,-0.3992,-0.4042,-0.3991,-0.4041,-0.4018,-0.4012,-0.3867,-0.3846,-0.4101,-0.4102,-0.4103,-0.4103,0,0,-0.3031,-0.3107,-0.3109,-0.3135,-0.3215,-0.3245,-0.3316,-0.3384,-0.3403,-0.3467,-0.3484,-0.3724,-0.3734,-0.3837,-0.3956,-0.396,-0.3872,-0.3992,-0.3991,-0.3816,-0.3685,-0.3591,-0.3558,-0.3904,-0.3902,-0.3901,-0.3572,0,-0.3021,-0.3067,-0.3117,-0.3163,-0.3194,-0.3258,-0.3318,-0.338,-0.3425,-0.3445,-0.3547,-0.3628,-0.3745,-0.3792,-0.3815,-0.3898,-0.383,-0.3951,-0.3753,-0.3745,-0.3632,-0.3538,-0.346,-0.3158,-0.3552,-0.3548,-0.3546,0,-0.3002,-0.3043,-0.3084,-0.3154,-0.3172,-0.3207,-0.3272,-0.3328,-0.3385,-0.3412,-0.3452,-0.3513,-0.3592,-0.3658,-0.3657,-0.3722,-0.3695,-0.3705,-0.3692,-0.3622,-0.3617,-0.325,-0.3107,-0.3096,-0.3515,-0.3517,-0.3519,0,-0.2936,-0.3011,-0.3041,-0.3068,-0.316,-0.3182,-0.3228,-0.3296,-0.3333,-0.3362,-0.3355,-0.3409,-0.3438,-0.342,-0.3486,-0.3549,-0.3408,-0.3475,-0.3316,-0.3304,-0.321,-0.3195,-0.301,-0.3385,-0.3386,-0.3387,-0.3388,0,-0.2899,-0.2913,-0.3006,-0.3019,-0.3042,-0.3127,-0.3143,-0.3189,-0.3237,-0.3255,-0.332,-0.3329,-0.339,-0.3349,-0.337,-0.3259,-0.3281,-0.3263,-0.3218,-0.318,-0.3166,-0.3138,-0.32,-0.3374,-0.3377,-0.3379,-0.3382,0,-0.2797,-0.2865,-0.2888,-0.2979,-0.3003,-0.3008,-0.3085,-0.3092,-0.3155,-0.3165,-0.3168,-0.3232,-0.3172,-0.316,-0.3116,-0.3096,-0.2952,-0.2959,-0.2865,-0.2818,-0.2668,-0.2731,-0.2496,-0.242,-0.2672,-0.2668,-0.2665,0,-0.2742,-0.2746,-0.2824,-0.2831,-0.2862,-0.2898,-0.2919,-0.302,-0.3042,-0.3119,-0.311,-0.307,-0.3039,-0.287,-0.28,-0.2637,-0.2741,-0.2491,-0.2632,-0.2596,-0.2634,-0.2693,-0.2653,-0.2431,-0.2425,-0.2421,-0.2418,0,-0.2619,-0.2642,-0.2663,-0.2691,-0.2713,-0.2743,-0.2792,-0.2806,-0.2923,-0.2942,-0.2952,-0.2925,-0.2789,-0.2627,-0.2443,-0.2377,-0.2444,-0.2396,-0.2403,-0.2449,-0.2458,-0.2384,-0.2657,-0.238,-0.2384,-0.2387,-0.2389,-0.239,-0.2495,-0.248,-0.2513,-0.2518,-0.2549,-0.2565,-0.2533,-0.2615,-0.2632,-0.2639,-0.2734,-0.2665,-0.2572,-0.2304,-0.2198,-0.2016,-0.2118,-0.2018,-0.2084,-0.2134,-0.2121,-0.2265,-0.1948,-0.1949,-0.1951,-0.1951,-0.1952,0,-0.2338,-0.2342,-0.2342,-0.2347,-0.2313,-0.2393,-0.2421,-0.2369,-0.2337,-0.2409,-0.2389,-0.2342,-0.2164,-0.2076,-0.1887,-0.1777,-0.1753,-0.175,-0.1847,-0.1811,-0.1942,-0.1999,-0.1629,-0.1629,-0.1629,-0.1629,-0.1629,-0.1629,-0.2251,-0.22,-0.2211,-0.2106,-0.2104,-0.2014,-0.1991,-0.1955,-0.1969,-0.192,-0.1937,-0.1999,-0.1953,-0.2027,-0.1839,-0.1726,-0.1706,-0.164,-0.1655,-0.1824,-0.1857,-0.1889,-0.1954,-0.1581,-0.1581,-0.1473,-0.1473,-0.1473]},{"header":{"parameterUnit":"m.s-1","parameterCategory":2,"la1":30.2991,"la2":30.254,"lo1":-89.0895,"lo2":-89.0444,"dy":0.0017,"dx":0.0017,"nx":28,"ny":28,"refTime":"2024-06-08T09:00:00:Z","depth":"0","parameterNumber":3,"parameterNumberName":"V-component_of_CURRENTS"},"data":[0,0,0,0,0,0,0,0,0,0,0,0,0,0,0,0,0,0,0,0,0,0,0,0,0,0,0,0,0,0,0,0,0,0,0,0,0,0,0,0,0,0,0,0,0,0,0,0,0,0,0,0,0,0,0,0,0,0,-0.0506,-0.0505,0,-0.0376,-0.0374,-0.0373,-0.0259,-0.0258,-0.0257,-0.0255,-0.0016,-0.0011,-0.0006,0,0,0,0,0,0,0,0,0,0,0,0,0,-0.0544,-0.0545,-0.0506,-0.0504,-0.0503,-0.0376,-0.0374,-0.0373,-0.026,-0.0258,-0.0256,-0.0255,-0.0018,-0.0012,-0.0006,0,0,0,0,0,0,0,0,0,0,0,0,0,-0.0483,-0.0545,-0.0506,-0.0431,-0.0422,-0.0376,-0.0374,-0.0372,-0.026,-0.0258,-0.0256,-0.0254,-0.002,-0.0012,-0.0005,0.0002,0,0,0.0019,0.0022,0,0,0,0,0,0,0,0,-0.0487,-0.0482,-0.0443,-0.0436,-0.0426,-0.0331,-0.03,-0.0241,-0.0261,-0.0323,-0.0255,-0.0253,-0.0112,-0.0097,-0.008,0.0013,0.0023,0.0019,0.0024,0.0027,0.0029,0,0,0,0,0,0,0,-0.0492,-0.0487,-0.0455,-0.0442,-0.0431,-0.0364,-0.0355,-0.0288,-0.0229,-0.0317,-0.0308,-0.0293,-0.0107,-0.0087,-0.0073,0.0027,0.0019,0.0026,0.0031,0.0034,0.0181,0.018,0,0,0,0,0,0,-0.0515,-0.0492,-0.0459,-0.0451,-0.0452,-0.0366,-0.0355,-0.0364,-0.0232,-0.021,-0.0295,-0.0288,-0.0102,-0.0082,-0.0064,-0.0053,0.0027,0.0034,0.0039,0.0182,0.0181,0.018,0,0,0,0,0,0,-0.0517,-0.0514,-0.0465,-0.0466,-0.0455,-0.0368,-0.0379,-0.0363,-0.0337,-0.0216,-0.0192,-0.0285,-0.0099,-0.0075,-0.0023,-0.0042,0.0038,0.0045,0.0182,0.0181,0.018,-0.0028,0,0,0,0,0,0,-0.0519,-0.0517,-0.0525,-0.0469,-0.0455,-0.0447,-0.038,-0.0362,-0.033,-0.032,-0.02,-0.0176,-0.0096,-0.0035,-0.0015,-0.003,0.0051,0.0183,0.0182,0.0181,-0.0021,-0.0036,-0.005,0,0,0,0,0,-0.0521,-0.0546,-0.0527,-0.0522,-0.0474,-0.0448,-0.0436,-0.0366,-0.0332,-0.0333,-0.0261,-0.0179,-0.0027,-0.0031,-0.0007,-0.002,0.0184,0.0182,0.0181,-0.0014,-0.0033,-0.005,0,0,0,0,0,0,-0.0563,-0.0535,-0.0513,-0.0527,-0.0495,-0.0429,-0.0418,-0.0379,-0.0325,-0.0312,-0.0201,-0.0174,-0.0132,-0.0048,-0.0054,0.0023,0.0098,0.0101,-0.0058,-0.0075,-0.009,-0.0122,0.0057,0,0,0,0,0,-0.0582,-0.0593,-0.0553,-0.0562,-0.0553,-0.0491,-0.0469,-0.0431,-0.0377,-0.0351,-0.0272,-0.0184,-0.0123,-0.0079,-0.0007,0.0025,0.0137,0.004,0.0025,0.0012,0.0004,0.0154,0.0151,0.0175,0.0175,0.0175,0,0,-0.0597,-0.0583,-0.0587,-0.0571,-0.0538,-0.0549,-0.0473,-0.0456,-0.0464,-0.0333,-0.0315,-0.0237,-0.0126,-0.0095,-0.0065,-0.0025,0.0061,0.001,-0.0003,-0.0003,0.0152,0.015,0.0148,0.0174,0.0174,0.0174,0,0,-0.0644,-0.063,-0.0657,-0.0645,-0.0614,-0.0586,-0.0591,-0.054,-0.0515,-0.0496,-0.0407,-0.0351,-0.0248,-0.0184,-0.0136,-0.0184,-0.0027,-0.0147,-0.0244,-0.01,-0.0101,-0.01,0.0016,0.0029,-0.0149,-0.015,-0.015,0,-0.0662,-0.0697,-0.0658,-0.0684,-0.0681,-0.0617,-0.065,-0.0627,-0.0566,-0.0545,-0.0511,-0.0367,-0.0293,-0.024,-0.0275,-0.0219,-0.0112,-0.0197,-0.0121,-0.0118,-0.0113,0.0006,0.0023,-0.016,-0.0159,-0.0157,-0.0157,0,-0.0732,-0.0756,-0.0772,-0.0791,-0.0787,-0.0802,-0.0775,-0.0767,-0.0729,-0.0684,-0.0625,-0.0529,-0.043,-0.041,-0.037,-0.031,-0.0238,-0.0165,-0.0086,-0.0129,0.0,0.0021,-0.0174,-0.0171,-0.0168,-0.0165,0,0,-0.0783,-0.0817,-0.0822,-0.0848,-0.0847,-0.0853,-0.088,-0.0868,-0.0859,-0.0799,-0.0759,-0.0701,-0.0619,-0.056,-0.0478,-0.0389,-0.0304,-0.0291,-0.0278,-0.0194,0.0008,0.0036,0.0064,-0.0207,-0.0204,-0.0202,0.0077,0,-0.0847,-0.0924,-0.0921,-0.0989,-0.1026,-0.0992,-0.101,-0.0988,-0.0944,-0.0888,-0.0785,-0.0708,-0.068,-0.0623,-0.0541,-0.0345,-0.0252,-0.0386,0.0055,0.0067,0.0083,0.0088,0.0127,0.0377,0.0099,0.0103,0.0105,0,-0.0918,-0.096,-0.1043,-0.1083,-0.1093,-0.1121,-0.1122,-0.1128,-0.1044,-0.0994,-0.0908,-0.0797,-0.0684,-0.063,-0.0343,-0.0422,-0.0243,-0.0097,-0.0079,0.0036,0.0135,0.0384,0.0428,0.0612,0.014,0.0137,0.0135,0,-0.0974,-0.1044,-0.1114,-0.1131,-0.1165,-0.1189,-0.1196,-0.1153,-0.1134,-0.1037,-0.0976,-0.0823,-0.0697,-0.0482,-0.0234,-0.0258,0.0116,0.0151,0.0344,0.0349,0.0513,0.0527,0.0775,0.0368,0.0368,0.0367,0.0366,0,-0.1047,-0.1101,-0.1144,-0.1184,-0.1244,-0.1242,-0.1266,-0.125,-0.1177,-0.1126,-0.1019,-0.0913,-0.0648,-0.0416,-0.021,0.0127,0.0157,0.033,0.0429,0.0438,0.044,0.0715,0.0769,0.0378,0.0375,0.0373,0.0371,0,-0.1099,-0.113,-0.1208,-0.1259,-0.1275,-0.1313,-0.1314,-0.1313,-0.1244,-0.1166,-0.1125,-0.0922,-0.0624,-0.0361,0.0034,0.0188,0.0624,0.0607,0.0569,0.0655,0.0958,0.0997,0.1356,0.1488,0.0866,0.0868,0.087,0,-0.1134,-0.1181,-0.126,-0.1299,-0.1327,-0.1367,-0.1384,-0.1348,-0.1327,-0.116,-0.1109,-0.0825,-0.0606,-0.0061,0.0272,0.0662,0.0797,0.0912,0.0852,0.0981,0.1102,0.1125,0.1211,0.0998,0.1001,0.1004,0.1006,0,-0.119,-0.1212,-0.1272,-0.1355,-0.14,-0.1441,-0.1454,-0.1439,-0.1362,-0.126,-0.1053,-0.0857,-0.0358,0.0096,0.0555,0.0778,0.1035,0.0971,0.116,0.1255,0.1252,0.1424,0.0781,0.1027,0.1025,0.1023,0.1022,0.1021,-0.121,-0.1263,-0.1334,-0.1409,-0.1459,-0.1498,-0.1507,-0.147,-0.1397,-0.1215,-0.1016,-0.068,-0.0067,0.059,0.0842,0.1319,0.1264,0.1457,0.1507,0.1529,0.1609,0.0967,0.1276,0.1275,0.1275,0.1274,0.1274,0,-0.1237,-0.1301,-0.138,-0.1465,-0.1516,-0.1533,-0.1539,-0.1497,-0.1385,-0.1165,-0.092,-0.0233,0.0369,0.0906,0.1568,0.1834,0.1902,0.1961,0.2027,0.2102,0.1617,0.1571,0.189,0.1889,0.1889,0.1889,0.1889,0.1889,-0.1253,-0.1338,-0.1389,-0.1488,-0.1537,-0.1564,-0.1555,-0.1459,-0.1298,-0.0899,-0.0513,-0.0187,0.0575,0.1637,0.2246,0.2305,0.2544,0.2518,0.2654,0.2313,0.2269,0.2227,0.2201,0.2646,0.2647,0.314,0.3145,0.3148]}],[{"header":{"parameterUnit":"m.s-1","parameterCategory":2,"la1":30.2991,"la2":30.254,"lo1":-89.0895,"lo2":-89.0444,"dy":0.0017,"dx":0.0017,"nx":28,"ny":28,"refTime":"2024-06-08T09:00:00:Z","depth":"2","parameterNumber":2,"parameterNumberName":"U-component_of_CURRENTS"},"data":[0,0,0,0,0,0,0,0,0,0,0,0,0,0,0,0,0,0,0,0,0,0,0,0,0,0,0,0,0,0,0,0,0,0,0,0,0,0,0,0,0,0,0,0,0,0,0,0,0,0,0,0,0,0,0,0,0,0,-0.2858,-0.2859,0,-0.2948,-0.2949,-0.2949,-0.2967,-0.2967,-0.2966,-0.2966,-0.3008,-0.3009,-0.301,0,0,0,0,0,0,0,0,0,0,0,0,0,-0.2726,-0.2728,-0.2858,-0.2859,-0.2861,-0.2948,-0.2949,-0.295,-0.2967,-0.2967,-0.2966,-0.2966,-0.3007,-0.3009,-0.3011,0,0,0,0,0,0,0,0,0,0,0,0,0,-0.2793,-0.2728,-0.2857,-0.2882,-0.2886,-0.2948,-0.2949,-0.295,-0.2967,-0.2966,-0.2966,-0.2965,-0.3006,-0.3009,-0.3011,-0.3037,0,0,-0.3018,-0.3019,0,0,0,0,0,0,0,0,-0.2789,-0.2797,-0.2877,-0.2881,-0.2885,-0.2949,-0.2918,-0.2978,-0.2967,-0.2933,-0.2966,-0.2965,-0.2986,-0.299,-0.3004,-0.3039,-0.304,-0.3018,-0.3019,-0.302,-0.3021,0,0,0,0,0,0,0,-0.2784,-0.2794,-0.289,-0.2879,-0.2883,-0.2898,-0.2906,-0.2929,-0.2958,-0.2936,-0.2938,-0.2954,-0.2987,-0.3002,-0.3005,-0.3041,-0.3018,-0.302,-0.3021,-0.3022,-0.3077,-0.3077,0,0,0,0,0,0,-0.278,-0.2789,-0.2887,-0.2893,-0.2838,-0.2901,-0.291,-0.2926,-0.2959,-0.2965,-0.2954,-0.2954,-0.2998,-0.3002,-0.3007,-0.3021,-0.302,-0.3022,-0.3024,-0.3077,-0.3077,-0.3077,0,0,0,0,0,0,-0.2777,-0.2788,-0.2884,-0.2846,-0.2859,-0.2904,-0.2922,-0.2928,-0.2943,-0.2974,-0.2978,-0.2962,-0.2998,-0.3003,-0.3028,-0.3023,-0.3023,-0.3025,-0.3077,-0.3077,-0.3077,-0.306,0,0,0,0,0,0,-0.2772,-0.2786,-0.2793,-0.2845,-0.2861,-0.2919,-0.2923,-0.293,-0.2955,-0.2956,-0.2983,-0.2986,-0.2998,-0.3025,-0.303,-0.3026,-0.3027,-0.3076,-0.3077,-0.3077,-0.3061,-0.306,-0.3059,0,0,0,0,0,-0.2767,-0.2779,-0.2793,-0.2805,-0.2871,-0.292,-0.2929,-0.2956,-0.2956,-0.2965,-0.2982,-0.2985,-0.3029,-0.3027,-0.3033,-0.3029,-0.3076,-0.3077,-0.3077,-0.3061,-0.306,-0.3059,0,0,0,0,0,0,-0.2726,-0.2784,-0.28,-0.2828,-0.2871,-0.2924,-0.2937,-0.2956,-0.2979,-0.2974,-0.2996,-0.3001,-0.3015,-0.303,-0.3027,-0.3045,-0.305,-0.3051,-0.3035,-0.3035,-0.3034,-0.3037,-0.3029,0,0,0,0,0,-0.2722,-0.2742,-0.2802,-0.2824,-0.2845,-0.289,-0.2912,-0.2932,-0.2963,-0.2973,-0.2996,-0.3013,-0.3023,-0.3035,-0.3048,-0.307,-0.3051,-0.3069,-0.3068,-0.3067,-0.3074,-0.3059,-0.3057,-0.3078,-0.3078,-0.3078,0,0,-0.2712,-0.2747,-0.2758,-0.2816,-0.2848,-0.2883,-0.2901,-0.2933,-0.2956,-0.2974,-0.3004,-0.3011,-0.3027,-0.3042,-0.3049,-0.3055,-0.3041,-0.3068,-0.3067,-0.3075,-0.3059,-0.3057,-0.3055,-0.3078,-0.3078,-0.3078,0,0,-0.2704,-0.2733,-0.275,-0.2787,-0.284,-0.2872,-0.2881,-0.2936,-0.2953,-0.2991,-0.2993,-0.3002,-0.304,-0.3043,-0.3049,-0.3056,-0.3033,-0.3056,-0.3062,-0.3046,-0.3044,-0.3042,-0.2965,-0.2957,-0.3061,-0.3061,-0.3061,0,-0.2689,-0.2723,-0.2762,-0.2794,-0.2822,-0.2866,-0.2892,-0.2922,-0.2977,-0.2988,-0.2997,-0.3028,-0.304,-0.3044,-0.3047,-0.3053,-0.3023,-0.3062,-0.3044,-0.3042,-0.3041,-0.2963,-0.2954,-0.306,-0.306,-0.306,-0.306,0,-0.2701,-0.2729,-0.2743,-0.2795,-0.283,-0.2857,-0.291,-0.2936,-0.2962,-0.299,-0.3006,-0.3025,-0.3043,-0.3041,-0.3052,-0.3043,-0.3013,-0.3038,-0.3043,-0.3037,-0.2955,-0.2946,-0.3059,-0.3059,-0.3059,-0.3059,0,0,-0.2659,-0.2735,-0.2739,-0.2763,-0.283,-0.2859,-0.2896,-0.2941,-0.2956,-0.2996,-0.3009,-0.3029,-0.3036,-0.3043,-0.3046,-0.304,-0.2985,-0.3039,-0.3038,-0.2956,-0.2901,-0.2812,-0.2793,-0.301,-0.3009,-0.3009,-0.2829,0,-0.2654,-0.2701,-0.2744,-0.2785,-0.2813,-0.2863,-0.2897,-0.2938,-0.297,-0.2994,-0.3005,-0.3018,-0.3037,-0.3036,-0.3035,-0.3007,-0.2969,-0.3029,-0.2926,-0.2922,-0.284,-0.2783,-0.2628,-0.2451,-0.282,-0.2819,-0.2818,0,-0.2644,-0.2681,-0.2718,-0.278,-0.2797,-0.2826,-0.2874,-0.291,-0.2951,-0.2975,-0.2992,-0.3006,-0.2999,-0.3019,-0.296,-0.2998,-0.2947,-0.2919,-0.2912,-0.2836,-0.2818,-0.2528,-0.2421,-0.2802,-0.2804,-0.2805,-0.2806,0,-0.2586,-0.2656,-0.268,-0.2703,-0.2784,-0.2802,-0.2841,-0.2893,-0.2918,-0.2952,-0.2964,-0.2971,-0.2962,-0.2931,-0.289,-0.292,-0.2805,-0.2836,-0.2691,-0.2681,-0.2533,-0.2512,-0.2774,-0.2774,-0.2774,-0.2775,-0.2776,0,-0.2557,-0.2572,-0.2653,-0.2667,-0.2691,-0.2762,-0.2785,-0.2828,-0.2877,-0.289,-0.2942,-0.2939,-0.2947,-0.2897,-0.2858,-0.273,-0.2772,-0.2665,-0.2634,-0.2516,-0.2497,-0.2814,-0.2821,-0.2768,-0.277,-0.2771,-0.2772,0,-0.2474,-0.2535,-0.2561,-0.2641,-0.2662,-0.2673,-0.2748,-0.2759,-0.2826,-0.2839,-0.2848,-0.2891,-0.2823,-0.279,-0.2712,-0.2663,-0.2569,-0.2509,-0.2341,-0.2294,-0.245,-0.2459,-0.231,-0.2305,-0.2301,-0.2298,-0.2295,0,-0.2432,-0.2438,-0.2514,-0.2522,-0.2552,-0.2591,-0.261,-0.2708,-0.2727,-0.28,-0.2788,-0.2759,-0.2704,-0.2546,-0.2444,-0.2297,-0.2419,-0.2088,-0.2133,-0.242,-0.2405,-0.242,-0.2433,-0.1897,-0.1891,-0.1887,-0.1883,0,-0.2331,-0.2358,-0.2378,-0.2408,-0.2432,-0.2461,-0.2504,-0.2517,-0.262,-0.2634,-0.2626,-0.259,-0.2463,-0.2256,-0.2098,-0.2012,-0.2107,-0.1986,-0.2313,-0.2063,-0.2024,-0.2013,-0.204,-0.1841,-0.1845,-0.1848,-0.1851,-0.1852,-0.2229,-0.2221,-0.2252,-0.226,-0.2292,-0.2299,-0.2264,-0.2323,-0.2327,-0.2306,-0.2391,-0.2272,-0.2227,-0.1892,-0.1755,-0.1645,-0.1792,-0.1735,-0.1753,-0.1774,-0.1783,-0.1743,-0.1503,-0.1505,-0.1507,-0.1509,-0.151,0,-0.2092,-0.2097,-0.21,-0.2106,-0.2071,-0.2147,-0.2156,-0.2088,-0.2027,-0.205,-0.2004,-0.1778,-0.1631,-0.1583,-0.1345,-0.1282,-0.1293,-0.1236,-0.1276,-0.1318,-0.1355,-0.1347,-0.0948,-0.0946,-0.0944,-0.0943,0,0,-0.2019,-0.1974,-0.1979,-0.1875,-0.1871,-0.1775,-0.1742,-0.1673,-0.1647,-0.1533,-0.1475,-0.1561,-0.157,-0.1281,-0.119,-0.1039,-0.1171,-0.098,-0.1434,-0.1526,-0.1561,-0.1644,-0.1677,0,0,0,0,0]},{"header":{"parameterUnit":"m.s-1","parameterCategory":2,"la1":30.2991,"la2":30.254,"lo1":-89.0895,"lo2":-89.0444,"dy":0.0017,"dx":0.0017,"nx":28,"ny":28,"refTime":"2024-06-08T09:00:00:Z","depth":"2","parameterNumber":3,"parameterNumberName":"V-component_of_CURRENTS"},"data":[0,0,0,0,0,0,0,0,0,0,0,0,0,0,0,0,0,0,0,0,0,0,0,0,0,0,0,0,0,0,0,0,0,0,0,0,0,0,0,0,0,0,0,0,0,0,0,0,0,0,0,0,0,0,0,0,0,0,-0.0421,-0.042,0,-0.0302,-0.0301,-0.0299,-0.0203,-0.0202,-0.0201,-0.02,-0.0038,-0.0035,-0.0031,0,0,0,0,0,0,0,0,0,0,0,0,0,-0.0454,-0.0455,-0.0421,-0.042,-0.0418,-0.0302,-0.0301,-0.0299,-0.0203,-0.0202,-0.02,-0.0199,-0.0039,-0.0035,-0.0031,0,0,0,0,0,0,0,0,0,0,0,0,0,-0.0399,-0.0455,-0.0422,-0.0356,-0.0349,-0.0303,-0.0301,-0.0299,-0.0203,-0.0201,-0.02,-0.0198,-0.004,-0.0036,-0.0031,-0.0032,0,0,-0.0015,-0.0013,0,0,0,0,0,0,0,0,-0.0402,-0.0398,-0.0367,-0.036,-0.0352,-0.0265,-0.0253,-0.0207,-0.0203,-0.0259,-0.0199,-0.0198,-0.0111,-0.01,-0.0082,-0.0024,-0.0017,-0.0015,-0.0012,-0.001,-0.0008,0,0,0,0,0,0,0,-0.0406,-0.0402,-0.0375,-0.0366,-0.0356,-0.0294,-0.0285,-0.0243,-0.0195,-0.0254,-0.0247,-0.0233,-0.0106,-0.0088,-0.0078,-0.0015,-0.0015,-0.0011,-0.0008,-0.0006,0.0112,0.0112,0,0,0,0,0,0,-0.0428,-0.0407,-0.0378,-0.0371,-0.0373,-0.0295,-0.0285,-0.0295,-0.0196,-0.018,-0.0234,-0.0229,-0.0097,-0.0084,-0.0072,-0.0039,-0.001,-0.0005,-0.0002,0.0112,0.0112,0.0112,0,0,0,0,0,0,-0.0429,-0.0428,-0.0383,-0.0383,-0.0373,-0.0297,-0.0308,-0.0294,-0.027,-0.0181,-0.0164,-0.0225,-0.0095,-0.0079,-0.0038,-0.0033,-0.0003,0.0002,0.0112,0.0112,0.0112,0.0009,0,0,0,0,0,0,-0.0431,-0.043,-0.0438,-0.0386,-0.0374,-0.0365,-0.0309,-0.0292,-0.0264,-0.0256,-0.0168,-0.0152,-0.0093,-0.0046,-0.0033,-0.0025,0.0005,0.0112,0.0112,0.0112,0.0012,0.0006,0.0,0,0,0,0,0,-0.0433,-0.0454,-0.044,-0.0435,-0.0391,-0.0366,-0.0355,-0.0293,-0.0266,-0.0266,-0.0205,-0.0154,-0.0033,-0.0043,-0.0027,-0.0018,0.0111,0.0112,0.0112,0.0015,0.0007,0.0,0,0,0,0,0,0,-0.0469,-0.0445,-0.0428,-0.0439,-0.041,-0.035,-0.0339,-0.0305,-0.0258,-0.0249,-0.0165,-0.0145,-0.0104,-0.0051,-0.0063,0.0019,0.0053,0.0056,-0.0026,-0.0033,-0.0039,-0.006,0.001,0,0,0,0,0,-0.0485,-0.0496,-0.046,-0.0468,-0.0459,-0.0404,-0.0384,-0.0351,-0.0304,-0.0281,-0.0222,-0.0153,-0.0092,-0.0058,-0.0003,0.003,0.0092,0.0052,0.0046,0.004,0.0035,0.0125,0.0127,0.0113,0.0113,0.0113,0,0,-0.0499,-0.0487,-0.0491,-0.0476,-0.0447,-0.0447,-0.0388,-0.0372,-0.0365,-0.0273,-0.0247,-0.0181,-0.009,-0.0047,-0.0022,-0.0001,0.0076,0.004,0.0035,0.0033,0.0126,0.0127,0.0128,0.0114,0.0113,0.0113,0,0,-0.0536,-0.0528,-0.0549,-0.0536,-0.0508,-0.0479,-0.0482,-0.0437,-0.0408,-0.0386,-0.0304,-0.0239,-0.0167,-0.0087,-0.0039,-0.0047,0.0035,-0.0027,-0.0068,0.0019,0.0021,0.0023,0.0096,0.0106,-0.0023,-0.0023,-0.0023,0,-0.055,-0.0577,-0.0548,-0.0565,-0.0556,-0.0503,-0.0521,-0.0492,-0.0437,-0.0411,-0.0393,-0.0254,-0.0181,-0.0096,-0.0095,-0.006,-0.0006,-0.0052,0.001,0.0013,0.0017,0.0092,0.0104,-0.0028,-0.0027,-0.0027,-0.0026,0,-0.0602,-0.062,-0.0632,-0.064,-0.063,-0.0638,-0.0601,-0.0586,-0.0551,-0.0506,-0.0436,-0.0337,-0.0247,-0.0208,-0.0156,-0.0081,-0.0052,-0.0017,0.0021,0.0012,0.0092,0.0106,-0.0035,-0.0033,-0.0032,-0.003,0,0,-0.0645,-0.0666,-0.067,-0.0686,-0.0672,-0.0672,-0.0669,-0.0639,-0.0624,-0.0563,-0.0524,-0.0412,-0.0349,-0.0289,-0.02,-0.012,-0.0044,-0.0068,-0.0061,-0.0009,0.0136,0.0157,0.0175,-0.0004,-0.0002,-0.0,0.0177,0,-0.0692,-0.0745,-0.0738,-0.0779,-0.0801,-0.0762,-0.0759,-0.0723,-0.0678,-0.0631,-0.0513,-0.0446,-0.0381,-0.0332,-0.0246,-0.009,-0.0011,-0.0097,0.0149,0.0156,0.0166,0.0191,0.0147,0.0302,0.0192,0.0194,0.0196,0,-0.0746,-0.0773,-0.0829,-0.0847,-0.0852,-0.0867,-0.0847,-0.0836,-0.0754,-0.0715,-0.0629,-0.0539,-0.0405,-0.0357,-0.0112,-0.0173,-0.0036,0.008,0.0091,0.0156,0.0204,0.0298,0.0333,0.0221,0.0219,0.0217,0.0216,0,-0.0792,-0.0836,-0.0882,-0.0892,-0.0904,-0.0915,-0.0912,-0.0859,-0.0841,-0.0761,-0.0729,-0.0576,-0.0478,-0.0304,-0.0076,-0.0091,0.0192,0.0211,0.0359,0.0362,0.0398,0.0401,0.0376,0.0376,0.0376,0.0375,0.0375,0,-0.0849,-0.0885,-0.0911,-0.094,-0.0987,-0.0969,-0.0988,-0.0966,-0.0909,-0.0876,-0.0772,-0.0696,-0.0461,-0.0275,-0.0088,0.0181,0.019,0.0359,0.0415,0.036,0.0357,0.0344,0.0338,0.0382,0.038,0.0379,0.0378,0,-0.09,-0.0916,-0.0972,-0.1003,-0.1016,-0.1048,-0.1054,-0.1055,-0.1,-0.0953,-0.0928,-0.0756,-0.0517,-0.0278,0.0038,0.0183,0.0426,0.0519,0.0429,0.047,0.0538,0.0525,0.0697,0.07,0.0702,0.0703,0.0705,0,-0.0932,-0.0967,-0.1028,-0.1065,-0.1088,-0.1123,-0.1143,-0.111,-0.11,-0.0975,-0.095,-0.0726,-0.055,-0.0107,0.0184,0.0509,0.0514,0.0647,0.0614,0.0537,0.0574,0.0557,0.0542,0.0626,0.0627,0.0627,0.0628,0,-0.0988,-0.1008,-0.1055,-0.1136,-0.1181,-0.1222,-0.1242,-0.1243,-0.1177,-0.1107,-0.0957,-0.0803,-0.0399,-0.005,0.034,0.0518,0.0582,0.0668,0.0649,0.0535,0.048,0.0513,0.0498,0.0632,0.0632,0.0632,0.0631,0.0631,-0.1019,-0.1069,-0.113,-0.1204,-0.1256,-0.1303,-0.1318,-0.1295,-0.1251,-0.1113,-0.0963,-0.0699,-0.0381,0.0176,0.0449,0.0683,0.0682,0.0742,0.0736,0.0731,0.0674,0.0625,0.0793,0.0794,0.0794,0.0795,0.0795,0,-0.1056,-0.1114,-0.119,-0.1273,-0.133,-0.1346,-0.1366,-0.1333,-0.1254,-0.1087,-0.0901,-0.0533,-0.0154,0.017,0.0552,0.0778,0.0747,0.0802,0.0723,0.0718,0.0713,0.0651,0.0767,0.0768,0.0768,0.0769,0,0,-0.1077,-0.116,-0.1205,-0.131,-0.1362,-0.14,-0.14,-0.1318,-0.1192,-0.0997,-0.0794,-0.0527,-0.0135,0.0134,0.0413,0.0607,0.0599,0.0614,0.0612,0.048,0.0472,0.0654,0.055,0,0,0,0,0]}],[{"header":{"parameterUnit":"m.s-1","parameterCategory":2,"la1":30.2991,"la2":30.254,"lo1":-89.0895,"lo2":-89.0444,"dy":0.0017,"dx":0.0017,"nx":28,"ny":28,"refTime":"2024-06-08T09:00:00:Z","depth":"4","parameterNumber":2,"parameterNumberName":"U-component_of_CURRENTS"},"data":[0,0,0,0,0,0,0,0,0,0,0,0,0,0,0,0,0,0,0,0,0,0,0,0,0,0,0,0,0,0,0,0,0,0,0,0,0,0,0,0,0,0,0,0,0,0,0,0,0,0,0,0,0,0,0,0,0,0,-0.1985,-0.1986,0,-0.2094,-0.2096,-0.2097,-0.2167,-0.2168,-0.2168,-0.2169,-0.2163,-0.2162,-0.2161,0,0,0,0,0,0,0,0,0,0,0,0,0,-0.1847,-0.1849,-0.1985,-0.1986,-0.1988,-0.2094,-0.2096,-0.2097,-0.2167,-0.2168,-0.2168,-0.2169,-0.2163,-0.2162,-0.2161,0,0,0,0,0,0,0,0,0,0,0,0,0,-0.1924,-0.1849,-0.1985,-0.2037,-0.2043,-0.2094,-0.2096,-0.2097,-0.2167,-0.2168,-0.2168,-0.2169,-0.2163,-0.2162,-0.2161,-0.2136,0,0,-0.2158,-0.2157,0,0,0,0,0,0,0,0,-0.192,-0.1929,-0.2028,-0.2034,-0.2041,-0.212,-0.2045,-0.2105,-0.2166,-0.2118,-0.2169,-0.217,-0.2138,-0.2139,-0.2157,-0.2135,-0.2135,-0.2158,-0.2157,-0.2156,-0.2156,0,0,0,0,0,0,0,-0.1914,-0.1925,-0.2026,-0.203,-0.2037,-0.2059,-0.2071,-0.2057,-0.2117,-0.2122,-0.2128,-0.2143,-0.2141,-0.2158,-0.2157,-0.2135,-0.2158,-0.2157,-0.2156,-0.2155,-0.2156,-0.2157,0,0,0,0,0,0,-0.1904,-0.192,-0.2023,-0.203,-0.1984,-0.2061,-0.2074,-0.2092,-0.212,-0.2127,-0.2142,-0.2146,-0.2159,-0.2158,-0.2156,-0.2196,-0.2156,-0.2155,-0.2155,-0.2156,-0.2157,-0.2157,0,0,0,0,0,0,-0.19,-0.1912,-0.2018,-0.1979,-0.1994,-0.2062,-0.2082,-0.2093,-0.2146,-0.2138,-0.2142,-0.2187,-0.216,-0.2158,-0.218,-0.2193,-0.2155,-0.2154,-0.2155,-0.2156,-0.2157,-0.2231,0,0,0,0,0,0,-0.1896,-0.191,-0.1936,-0.1978,-0.1996,-0.2071,-0.2081,-0.2095,-0.2153,-0.216,-0.2176,-0.2175,-0.216,-0.2182,-0.2179,-0.2191,-0.2153,-0.2154,-0.2155,-0.2157,-0.2227,-0.2234,-0.224,0,0,0,0,0,-0.1891,-0.1915,-0.1936,-0.195,-0.2023,-0.2072,-0.2084,-0.2133,-0.2154,-0.2183,-0.2199,-0.2177,-0.2187,-0.2183,-0.2179,-0.2191,-0.2153,-0.2155,-0.2157,-0.2225,-0.2233,-0.224,0,0,0,0,0,0,-0.1871,-0.1926,-0.195,-0.1992,-0.204,-0.2086,-0.2121,-0.2152,-0.2191,-0.2201,-0.2193,-0.2193,-0.2212,-0.2192,-0.2187,-0.2193,-0.2163,-0.2164,-0.2216,-0.2224,-0.223,-0.2221,-0.2152,0,0,0,0,0,-0.1877,-0.1911,-0.1964,-0.2001,-0.2027,-0.208,-0.2113,-0.2147,-0.218,-0.2202,-0.2219,-0.222,-0.2209,-0.2213,-0.2205,-0.2213,-0.2178,-0.2215,-0.2221,-0.2227,-0.2217,-0.2198,-0.2201,-0.2162,-0.2162,-0.2162,0,0,-0.1881,-0.1916,-0.1937,-0.2,-0.2042,-0.2082,-0.2103,-0.2161,-0.2195,-0.2188,-0.2247,-0.2246,-0.2217,-0.223,-0.2236,-0.2221,-0.2219,-0.2229,-0.2234,-0.222,-0.22,-0.2204,-0.2207,-0.2164,-0.2163,-0.2163,0,0,-0.1893,-0.1937,-0.1968,-0.2009,-0.2077,-0.2106,-0.213,-0.2197,-0.2231,-0.228,-0.2275,-0.2292,-0.2298,-0.2282,-0.2267,-0.23,-0.2253,-0.2296,-0.2322,-0.2305,-0.2308,-0.231,-0.2268,-0.2265,-0.23,-0.23,-0.23,0,-0.1898,-0.1942,-0.1986,-0.2026,-0.2061,-0.2119,-0.2157,-0.2195,-0.2266,-0.2285,-0.2308,-0.2328,-0.2316,-0.2304,-0.2319,-0.2313,-0.2288,-0.2299,-0.2314,-0.2315,-0.2316,-0.2272,-0.2268,-0.2304,-0.2303,-0.2303,-0.2302,0,-0.1924,-0.1973,-0.1995,-0.206,-0.2103,-0.2147,-0.2199,-0.2251,-0.23,-0.2333,-0.2368,-0.2373,-0.2379,-0.2379,-0.2359,-0.2356,-0.233,-0.2326,-0.2296,-0.2324,-0.2276,-0.2271,-0.2309,-0.2308,-0.2307,-0.2306,0,0,-0.1895,-0.1994,-0.2005,-0.2043,-0.2124,-0.2158,-0.2213,-0.2267,-0.2302,-0.2369,-0.2404,-0.2407,-0.2426,-0.2409,-0.2397,-0.2386,-0.2376,-0.2364,-0.2361,-0.2323,-0.232,-0.2179,-0.216,-0.2381,-0.2381,-0.238,-0.2282,0,-0.1905,-0.1975,-0.2023,-0.2091,-0.2129,-0.2192,-0.2235,-0.2291,-0.2341,-0.2392,-0.2403,-0.2432,-0.2429,-0.2442,-0.2434,-0.2388,-0.2366,-0.2401,-0.2295,-0.2291,-0.2165,-0.2151,-0.2379,-0.2278,-0.2277,-0.2276,-0.2275,0,-0.1905,-0.1955,-0.2022,-0.2107,-0.213,-0.2179,-0.2253,-0.23,-0.2363,-0.2403,-0.2439,-0.2456,-0.2453,-0.2456,-0.2396,-0.242,-0.2372,-0.2338,-0.2333,-0.2168,-0.214,-0.2243,-0.2265,-0.2266,-0.2267,-0.2268,-0.2268,0,-0.1849,-0.1948,-0.2,-0.2033,-0.2137,-0.2179,-0.2234,-0.2306,-0.2341,-0.2411,-0.2441,-0.2456,-0.2457,-0.2422,-0.2362,-0.2382,-0.228,-0.2298,-0.212,-0.2109,-0.2236,-0.2235,-0.2244,-0.2244,-0.2245,-0.2245,-0.2245,0,-0.1819,-0.1866,-0.1987,-0.2017,-0.2077,-0.2159,-0.2221,-0.2278,-0.235,-0.2369,-0.2442,-0.2437,-0.2451,-0.2403,-0.2354,-0.2201,-0.227,-0.2101,-0.2069,-0.2269,-0.2272,-0.2232,-0.2232,-0.2241,-0.2242,-0.2243,-0.2243,0,-0.1741,-0.1828,-0.1896,-0.2017,-0.2055,-0.2098,-0.221,-0.2236,-0.2326,-0.2351,-0.2373,-0.2413,-0.2339,-0.2319,-0.2236,-0.2158,-0.2053,-0.1983,-0.2172,-0.2157,-0.1898,-0.1903,-0.1772,-0.1766,-0.1761,-0.1757,-0.1754,0,-0.1702,-0.1733,-0.1874,-0.191,-0.197,-0.2051,-0.209,-0.2206,-0.2225,-0.2302,-0.2283,-0.2269,-0.2267,-0.202,-0.2035,-0.1912,-0.1892,-0.1831,-0.1885,-0.1864,-0.1847,-0.186,-0.1872,-0.1746,-0.1744,-0.1743,-0.1742,0,-0.1613,-0.1684,-0.1736,-0.1815,-0.1877,-0.1929,-0.1996,-0.1996,-0.2097,-0.2206,-0.2119,-0.2065,-0.1972,-0.1897,-0.1805,-0.1732,-0.1874,-0.1779,-0.179,-0.184,-0.1831,-0.1822,-0.1839,-0.1724,-0.1727,-0.1728,-0.1729,0,-0.1539,-0.1557,-0.1637,-0.1683,-0.1759,-0.1762,-0.1826,-0.1825,-0.186,-0.1953,-0.1912,-0.1898,-0.1939,-0.18,-0.172,-0.163,-0.1614,-0.157,-0.1592,-0.1611,-0.1605,-0.1573,-0.1334,0,0,0,0,0,-0.1451,-0.1451,-0.1489,-0.1532,-0.1598,-0.1636,-0.1731,-0.1793,-0.1897,-0.1779,-0.1842,-0.1749,-0.1635,-0.1635,-0.15,-0.1648,-0.1624,-0.1489,-0.1588,-0.1628,-0.1648,-0.1657,0,0,0,0,0,0,-0.1392,-0.1428,-0.1437,-0.1384,-0.1378,-0.1427,-0.1479,-0.1556,-0.1504,-0.1614,-0.1548,-0.1639,-0.1541,-0.166,-0.1457,-0.1457,-0.1482,-0.15,-0.1495,-0.1616,-0.1635,-0.1651,-0.1667,0,0,0,0,0]},{"header":{"parameterUnit":"m.s-1","parameterCategory":2,"la1":30.2991,"la2":30.254,"lo1":-89.0895,"lo2":-89.0444,"dy":0.0017,"dx":0.0017,"nx":28,"ny":28,"refTime":"2024-06-08T09:00:00:Z","depth":"4","parameterNumber":3,"parameterNumberName":"V-component_of_CURRENTS"},"data":[0,0,0,0,0,0,0,0,0,0,0,0,0,0,0,0,0,0,0,0,0,0,0,0,0,0,0,0,0,0,0,0,0,0,0,0,0,0,0,0,0,0,0,0,0,0,0,0,0,0,0,0,0,0,0,0,0,0,-0.0301,-0.03,0,-0.022,-0.0219,-0.0218,-0.0156,-0.0156,-0.0155,-0.0155,-0.0067,-0.0066,-0.0064,0,0,0,0,0,0,0,0,0,0,0,0,0,-0.0314,-0.0315,-0.0301,-0.03,-0.0299,-0.022,-0.0219,-0.0217,-0.0156,-0.0156,-0.0155,-0.0154,-0.0068,-0.0066,-0.0064,0,0,0,0,0,0,0,0,0,0,0,0,0,-0.0279,-0.0315,-0.0301,-0.0259,-0.0254,-0.022,-0.0218,-0.0217,-0.0157,-0.0156,-0.0155,-0.0154,-0.0069,-0.0066,-0.0063,-0.0063,0,0,-0.0055,-0.0054,0,0,0,0,0,0,0,0,-0.0281,-0.0278,-0.0266,-0.0262,-0.0256,-0.0197,-0.0191,-0.0165,-0.0157,-0.0194,-0.0155,-0.0154,-0.0111,-0.0105,-0.0091,-0.0059,-0.0056,-0.0055,-0.0053,-0.0052,-0.0051,0,0,0,0,0,0,0,-0.0284,-0.0281,-0.0269,-0.0265,-0.0259,-0.0213,-0.0208,-0.0186,-0.0158,-0.019,-0.0186,-0.0177,-0.0108,-0.0094,-0.0089,-0.0054,-0.0055,-0.0052,-0.0051,-0.005,0.0038,0.0038,0,0,0,0,0,0,-0.0299,-0.0284,-0.0271,-0.0266,-0.0267,-0.0214,-0.0208,-0.0217,-0.0158,-0.0148,-0.0178,-0.0174,-0.0099,-0.0092,-0.0085,-0.0054,-0.0052,-0.0049,-0.0048,0.0037,0.0038,0.0039,0,0,0,0,0,0,-0.03,-0.03,-0.0274,-0.0272,-0.0265,-0.0216,-0.0225,-0.0216,-0.0203,-0.0149,-0.0138,-0.0174,-0.0098,-0.0089,-0.0062,-0.0051,-0.0048,-0.0046,0.0036,0.0037,0.0038,-0.0009,0,0,0,0,0,0,-0.0301,-0.0301,-0.031,-0.0274,-0.0266,-0.0263,-0.0226,-0.0215,-0.0198,-0.0193,-0.0142,-0.0133,-0.0097,-0.0067,-0.006,-0.0047,-0.0044,0.0035,0.0037,0.0038,-0.0008,-0.0009,-0.0011,0,0,0,0,0,-0.0303,-0.0318,-0.0311,-0.0309,-0.0282,-0.0263,-0.0256,-0.0216,-0.0199,-0.02,-0.0159,-0.0135,-0.0052,-0.0065,-0.0056,-0.0043,0.0035,0.0036,0.0038,-0.0008,-0.0009,-0.0011,0,0,0,0,0,0,-0.0325,-0.0313,-0.0304,-0.0315,-0.0296,-0.0253,-0.0247,-0.0225,-0.0194,-0.019,-0.0137,-0.0126,-0.0094,-0.0064,-0.0079,-0.0011,-0.0,0.0003,-0.0037,-0.0039,-0.004,-0.0059,-0.0041,0,0,0,0,0,-0.0338,-0.0349,-0.0326,-0.0335,-0.033,-0.0293,-0.028,-0.0259,-0.0226,-0.0212,-0.0176,-0.0129,-0.0081,-0.0059,-0.0022,0.0003,0.0034,0.0023,0.0021,0.002,0.0012,0.0074,0.0077,0.0044,0.0044,0.0044,0,0,-0.0348,-0.0343,-0.0348,-0.034,-0.0322,-0.032,-0.0283,-0.0275,-0.0266,-0.0209,-0.0189,-0.0141,-0.0077,-0.0039,-0.0021,-0.0013,0.0046,0.0022,0.002,0.0013,0.0076,0.0079,0.0082,0.0045,0.0045,0.0044,0,0,-0.0373,-0.0374,-0.039,-0.0382,-0.0366,-0.0345,-0.0348,-0.0318,-0.0296,-0.028,-0.0219,-0.0165,-0.012,-0.0052,-0.0015,-0.0002,0.0033,0.001,-0.0009,0.0051,0.0054,0.0057,0.0093,0.0099,0.0014,0.0014,0.0014,0,-0.0383,-0.0403,-0.0389,-0.0399,-0.0393,-0.0362,-0.0372,-0.0349,-0.0311,-0.0291,-0.0284,-0.0175,-0.012,-0.0041,-0.0028,-0.0005,0.002,-0.0012,0.0048,0.0052,0.0055,0.0092,0.0099,0.0012,0.0012,0.0012,0.0012,0,-0.0415,-0.043,-0.0439,-0.0445,-0.0438,-0.0444,-0.0415,-0.0406,-0.0384,-0.035,-0.0292,-0.0213,-0.0145,-0.0107,-0.0065,0.0003,0.0008,0.0033,0.0045,0.0056,0.0093,0.0102,0.0009,0.001,0.001,0.0011,0,0,-0.0441,-0.0458,-0.0464,-0.0475,-0.0465,-0.0465,-0.0456,-0.043,-0.0422,-0.0374,-0.0346,-0.0239,-0.0198,-0.0151,-0.0077,-0.0015,0.0043,0.0013,0.0017,0.0035,0.0152,0.0129,0.0137,0.0072,0.0074,0.0075,0.0164,0,-0.0469,-0.0504,-0.05,-0.0528,-0.0541,-0.0517,-0.051,-0.0483,-0.0453,-0.0423,-0.0325,-0.0277,-0.0213,-0.018,-0.0105,0.0005,0.0064,0.0014,0.015,0.0154,0.0122,0.0146,0.008,0.0171,0.0173,0.0175,0.0176,0,-0.05,-0.0519,-0.0557,-0.0573,-0.0577,-0.059,-0.0578,-0.0568,-0.0511,-0.0486,-0.0418,-0.0355,-0.0243,-0.0203,-0.002,-0.0061,0.0035,0.0118,0.0124,0.0123,0.0147,0.0164,0.0192,0.0191,0.019,0.0189,0.0188,0,-0.0527,-0.0558,-0.0593,-0.06,-0.0612,-0.0624,-0.0625,-0.0589,-0.0582,-0.0529,-0.0518,-0.0392,-0.0328,-0.0193,-0.0024,-0.0025,0.0161,0.0186,0.0257,0.0256,0.0269,0.0265,0.0307,0.0307,0.0307,0.0306,0.0306,0,-0.0555,-0.0585,-0.0618,-0.064,-0.0684,-0.0669,-0.0698,-0.0683,-0.0652,-0.0641,-0.0556,-0.051,-0.0323,-0.0196,-0.0048,0.0124,0.0146,0.0251,0.0282,0.0246,0.0239,0.0275,0.027,0.031,0.0309,0.0308,0.0308,0,-0.0584,-0.0603,-0.0652,-0.0686,-0.0705,-0.0738,-0.0765,-0.0775,-0.0743,-0.0728,-0.0716,-0.059,-0.0426,-0.0243,-0.0013,0.0091,0.026,0.0318,0.0246,0.0272,0.0316,0.0308,0.0395,0.0395,0.0395,0.0395,0.0395,0,-0.0602,-0.063,-0.0701,-0.0743,-0.077,-0.0815,-0.0844,-0.083,-0.0833,-0.0765,-0.0755,-0.0613,-0.0509,-0.0206,-0.0019,0.0235,0.0279,0.0347,0.035,0.0306,0.0328,0.0319,0.0311,0.0395,0.0395,0.0395,0.0395,0,-0.0632,-0.0666,-0.0709,-0.0799,-0.0855,-0.0903,-0.0938,-0.0943,-0.0908,-0.0885,-0.0768,-0.0614,-0.0433,-0.0204,-0.0014,0.0175,0.0289,0.0348,0.0349,0.0353,0.0308,0.0327,0.0319,0.0395,0.0395,0.0395,0.0395,0,-0.0656,-0.0701,-0.0767,-0.0841,-0.0916,-0.0965,-0.0977,-0.0957,-0.0944,-0.0857,-0.0814,-0.0614,-0.049,-0.0234,-0.0053,0.0116,0.0164,0.0215,0.0225,0.0227,0.015,0.0065,0.0105,0,0,0,0,0,-0.0671,-0.0723,-0.0801,-0.0881,-0.0955,-0.0992,-0.1027,-0.102,-0.0985,-0.0906,-0.0854,-0.0679,-0.0401,-0.0277,-0.0109,-0.0066,0.0174,0.0133,0.0233,0.0395,0.0395,0.0332,0,0,0,0,0,0,-0.0683,-0.076,-0.08,-0.0895,-0.0949,-0.1022,-0.1039,-0.1017,-0.0958,-0.0898,-0.0743,-0.0653,-0.0379,-0.0492,-0.0108,-0.0058,0.0024,0.0267,0.027,0.0395,0.0395,0.0395,0.033,0,0,0,0,0]}]]